Content
SEND FEEDBACK

Daily
Averages
Monthly
Summary
Turkmenistan

ASHGABAT, TURKMENISTAN


Home > Asia > Turkmenistan
Elevation: 775 feet     Latitude: 37 58N     Longitude: 058 20E

WEATHER
 
SELECT A DAY
Number of Records: 180,407;   Date Range: 3/15/97 - 9/30/14
 
SHARE

PRINT THIS DATA

[ ← Previous Day ]
WEATHER ALMANAC - APRIL 18, 2014
[ Next Day → ]
[ °C ]   °F
Weather ElementAverageHighLow
Temperature68.3 °F82.4 °F (4:00 pm)51.8 °F (7:00 am)
Dewpoint27.2 °F35.6 °F (8:00 am)17.6 °F (12:00 pm)
Humidity22.8 %47 % (4:00 am)4 % (2:00 pm)
Barometer30.04 in30.12 in (2:00 am)29.98 in (4:30 pm)
Wind Speed5.6 mph8.9 mph (2:00 pm)
Weather ElementAverage
Visibility5.7 mi
Wind DirectionESE (113.5 °)

Weather ElementTotal
Precipitation---
Cooling Degree Days2.1 (Base 65)
Growing Degree Days17.1 (Base 50)
Averaged from 32 records on April 18, 2014
WEATHER CONDITIONS BREAKOUT
WIND DIRECTION BREAKOUT
WEATHER BY HOUR - APRIL 18, 2014
[ °C ]   °F
Local TimeTemperatureDewpointHumidityBarometerVisibilityWind DirectionWind SpeedGust SpeedPrecipitationEventsConditions
1:00 AM59.0 °F33.8 °F39 %30.09 in6.2 miWSW (240°)4.5 mphClear
2:00 AM56.0 °F32.0 °F28 %30.12 in2.0 miCalmHaze
2:00 AM55.4 °F32.0 °F41 %30.06 in3.7 miCalmClear
3:00 AM55.4 °F33.8 °F44 %30.06 in4.3 miSSW (210°)2.2 mphClear
4:00 AM53.6 °F33.8 °F47 %30.06 in4.3 miSW (220°)2.2 mphClear
5:00 AM52.0 °F35.0 °F40 %30.11 in2.0 miSW (220°)4.5 mph
5:00 AM53.6 °F32.0 °F44 %30.06 in6.2 miSW (220°)4.5 mphClear
6:00 AM53.6 °F32.0 °F44 %30.06 in5.0 miSW (220°)2.2 mphClear
7:00 AM51.8 °F30.2 °F44 %30.06 in6.2 miSSW (210°)4.5 mphClear
8:00 AM57.0 °F35.0 °F31 %30.11 in6.0 miEast (80°)2.2 mph
8:00 AM59.0 °F35.6 °F42 %30.06 in6.2 miVariable2.2 mphClear
9:00 AM64.4 °F26.6 °F24 %30.06 in6.2 miEast (90°)4.5 mphClear
10:00 AM68.0 °F23.0 °F18 %30.06 in6.2 miEast (80°)4.5 mphClear
11:00 AM70.0 °F20.0 °F7 %30.10 in6.0 miEast (80°)4.5 mph
11:00 AM71.6 °F19.4 °F14 %30.09 in6.2 miENE (60°)6.7 mphClear
12:00 PM75.2 °F17.6 °F11 %30.06 in6.2 miEast (80°)6.7 mphClear
1:00 PM77.0 °F17.6 °F11 %30.04 in6.2 miEast (80°)6.7 mphClear
2:00 PM78.0 °F18.0 °F4 %30.05 in6.0 miEast (100°)6.7 mphClear
2:00 PM78.8 °F19.4 °F11 %30.04 in6.2 miENE (70°)8.9 mphScattered Clouds
3:00 PM80.6 °F24.8 °F13 %30.01 in6.2 miSE (140°)8.9 mphScattered Clouds
4:00 PM82.4 °F23.0 °F11 %30.01 in6.2 miESE (110°)8.9 mphMostly Cloudy
4:30 PM82.4 °F24.8 °F12 %29.98 in6.2 miENE (70°)8.9 mphMostly Cloudy
5:00 PM82.0 °F26.0 °F6 %30.00 in6.0 miESE (120°)8.9 mphPartly Cloudy
5:00 PM82.4 °F24.8 °F12 %29.98 in6.2 miENE (70°)8.9 mphMostly Cloudy
6:00 PM80.6 °F24.8 °F13 %29.98 in6.2 miESE (110°)6.7 mphMostly Cloudy
7:00 PM78.8 °F24.8 °F14 %29.98 in6.2 miEast (100°)6.7 mphMostly Cloudy
8:00 PM75.0 °F31.0 °F11 %30.00 in6.0 miESE (110°)8.9 mphOvercast
8:00 PM77.0 °F23.0 °F13 %29.98 in6.2 miESE (110°)8.9 mphOvercast
9:00 PM71.6 °F24.8 °F17 %29.98 in6.2 miESE (110°)6.7 mphOvercast
10:00 PM69.8 °F30.2 °F23 %29.98 in6.2 miENE (70°)4.5 mphMostly Cloudy
11:00 PM67.0 °F32.0 °F16 %30.00 in6.0 miENE (70°)6.7 mphClear
11:00 PM66.2 °F30.2 °F26 %29.98 in6.2 miENE (70°)6.7 mphMostly Cloudy
Hourly data recorded from UTAA, located miles away from Ashgabat, Turkmenistan







STORIES FROM OUR PARTNERS